Location: Invercargill
(46.4000°S, 168.3500°E)
Time: 01:44:24
(UTC+13:00)

CENTAUR R/B - Pass Details

Date: 24 January 2019
Orbit: 780 x 1408 km, 63.4° (Epoch: 08 October)

Event Time Altitude Azimuth Distance (km) Brightness Sun altitude
Exits shadow 23:29:06 18° 65° (ENE) 2,683 4.3 -16.2°
Maximum altitude 23:29:53 18° 72° (ENE) 2,648 4.3 -16.3°
Drops below altitude 10° 23:34:33 10° 111° (ESE) 3,082 5.0 -16.8°
Sets 23:38:04 0° 128° (SE) 3,931 5.7 -17.1°
